User: anonymous   Login
Location: Unspecified
(0.0000°N, 0.0000°E)
Time: 21:16:21
(UTC+00:00)
Language:

OBJECT BE - Orbit

View from above orbital plane
View from above orbital plane
View from above satellite
View from above satellite

Ground track
Ground track

The orbit data is extracted from the following two-line orbital elements,

1 42000U 17008BE  17141.93082499 +.00001419 +00000-0 +64993-4 0  9990
2 42000 097.4981 203.3535 0007514 310.4392 049.6188 15.22133610013864
Epoch (UTC): 21 May 2017 22:20:23
Eccentricity: 0.0007514
inclination: 97.4981°
perigee height: 494 km
apogee height: 504 km
right ascension of ascending node: 203.3535°
argument of perigee: 310.4392°
revolutions per day: 15.22133610
mean anomaly at epoch: 49.6188°
orbit number at epoch: 1386

The dashed part of the orbit path shows where the satellite is in the earth's shadow,  

DLR